{"data":{"norad_id":66384,"epoch":"2026-05-25T05:16:01.604064Z","epoch_age_seconds":49340,"freshness":"FRESH","line1":"1 66384U 25257E   26145.21946301  .00018855  00000+0  64696-3 0  9992","line2":"2 66384  53.1582 221.3316 0001285  76.0896 284.0247 15.30207004 31455","mean_motion":15.30207004,"eccentricity":0.0001285,"inclination_deg":53.1582,"raan_deg":221.3316,"arg_perigee_deg":76.0896,"mean_anomaly_deg":284.0247,"bstar":0.00064696,"rev_number":3145,"period_min":94.10491497136,"perigee_km":474.31350376392,"apogee_km":476.07480987122,"semimajor_km":6853.3311568176,"source":"CELESTRAK","updated_at":"2026-05-25T13:38:21.200783Z"}}